Location: Miramichi City (Newcastle)
(46.9830°N, 65.5670°W)
Time: 20:05:28
(UTC-03:00)

Iridium 12 - Visible Passes

Search period start: 04 May 2016 00:00
Search period end: 14 May 2016 00:00
Orbit: 776 x 779 km, 86.4° (Epoch: 04 May)

Date Brightness Start Highest point End Pass type
(mag) Time Alt. Az. Time Alt. Az. Time Alt. Az.
04 May 5.8 21:33:57 10° S 21:39:09 72° W 21:44:24 10° N visible
04 May 8.7 23:20:18 10° WNW 23:20:53 10° WNW 23:21:29 10° WNW visible
05 May 8.2 22:43:23 10° WSW 22:46:53 18° WNW 22:50:24 10° NNW visible
06 May 7.5 22:08:29 10° SW 22:13:02 30° WNW 22:17:36 10° NNW visible
07 May 6.5 21:34:15 10° SSW 21:39:18 51° W 21:44:25 10° N visible
08 May 8.4 22:44:54 10° W 22:47:15 13° WNW 22:49:35 10° NW visible
09 May 8.1 22:09:18 10° WSW 22:13:18 22° WNW 22:17:19 10° NNW visible
10 May 7.2 21:34:42 10° SW 21:39:30 37° WNW 21:44:20 10° NNW visible
12 May 8.4 22:10:28 10° WSW 22:13:37 16° WNW 22:16:48 10° NNW visible
13 May 7.9 21:35:21 10° SW 21:39:44 27° WNW 21:44:09 10° NNW visible
